Miscellaneous Local Product
Issued by NWS North Platte, NE

Home | Current Version | Previous Version | Graphics & Text | Print | Product List | Glossary On
Versions: 1 2 3 4 5 6 7 8 9 10 11 12 13 14 15 16 17 18 19 20 21 22 23 24 25 26 27 28 29 30 31 32 33 34 35 36 37 38 39 40 41 42 43 44 45 46 47 48 49 50
000
AXUS43 KLBF 051110
MISLBF


WESTERN AND NORTH CENTRAL NEBRASKA HOURLY WEATHER ROUNDUP
NATIONAL WEATHER SERVICE NORTH PLATTE NE
600 AM CDT SUN JUL 05 2015

***STATIONS NOT REPORTING VARIABLES SUCH AS SKY/WEATHER OR
PRESSURE ARE PROVIDED BY THE NEBRASKA DEPARTMENT OF
ROADS...RAWS...AND APRS NETWORKS...AND ARE NOT UNDER
NATIONAL WEATHER SERVICE QUALITY CONTROL***

...OBSERVATIONS IN AND NEAR THE EASTERN PANHANDLE OF NEBRASKA...

CITY           SKY/WX    TMP DP  RH WIND       PRES   REMARKS
PINE RIDGE     CLEAR     73  62  68 CALM      29.82R
CHADRON        CLEAR     63  60  90 NW5       29.80S
ALLIANCE       CLEAR     64  62  93 SE6       29.85F
SIDNEY         CLEAR     59  58  96 CALM      29.91R
WHITECLAY        N/A     65  61  86 SE9         N/A
CRESCENT LAKE    N/A     67  63  87 S5          N/A
BIG SPRINGS      N/A     67  62  83 S12         N/A
$$

...OBSERVATIONS IN NORTH CENTRAL NEBRASKA...

CITY           SKY/WX    TMP DP  RH WIND       PRES   REMARKS
VALENTINE      CLEAR     73  53  49 SW10      29.77R
THEDFORD       PTCLDY    70  66  85 S8        29.83F
AINSWORTH      CLEAR     72  62  71 S12       29.79R
O`NEILL        PTCLDY    68  66  92 S9        29.82F
ORD            LGT RAIN  71  63  75 W3        29.85R
BROKEN BOW     CLOUDY    71  65  81 CALM      29.86R
VALENTINE NWR    N/A     71  59  66 S9          N/A
SPRINGVIEW       N/A     70  63  79 CALM        N/A
HALSEY           N/A     69  64  85 S7          N/A
BREWSTER         N/A     73  69  89 S7          N/A
ROSE             N/A     83  80  93 S20         N/A  HX  95
NEWPORT          N/A     72  67  82 E3          N/A
SARGENT          N/A     70  65  83 CALM        N/A
CHAMBERS         N/A     69  63  82 S3G12       N/A
EWING            N/A     70  66  88 S3          N/A
$$

...OBSERVATIONS IN SOUTHWEST NEBRASKA AND FAR NORTHEAST COLORADO...

CITY           SKY/WX    TMP DP  RH WIND       PRES   REMARKS
WRAY           FAIR      65  58  79 S3        29.89S
HOLYOKE        FAIR      63  59  88 S5        29.87F
IMPERIAL       CLEAR     69  63  81 S9        29.86S
OGALLALA       CLEAR     68  63  82 CALM      29.84F
NORTH PLATTE   CLEAR     72  64  76 SE9       29.84F
MCCOOK         CLEAR     76  62  62 S14       29.84S
LEXINGTON      PTCLDY    72  66  82 S12G18    29.84S
PAXTON           N/A     68  63  84 CALM        N/A
GOTHENBURG       N/A     71  62  73 S7          N/A
CALLAWAY         N/A     69  65  89 SE9         N/A
$$

...NORTH PLATTE AREA...

CITY           SKY/WX    TMP DP  RH WIND       PRES   REMARKS
AIRPORT        CLEAR     72  64  76 SE9       29.84F
DOWNTOWN         N/A     72  65  78 S3G12       N/A
HILLCREST        N/A     71  64  80 SE7         N/A
$$

...SOME WEATHER OBSERVATIONS FROM AROUND THE REGION...

CITY           SKY/WX    TMP DP  RH WIND       PRES   REMARKS
DENVER         MOCLDY    66  50  56 SW7       29.99R
LARAMIE        MOCLDY    54  49  83 SE8       30.13R
CHEYENNE       PTCLDY    67  48  50 W10       30.01S
SCOTTSBLUFF    PTCLDY    64  61  90 E3        29.87S
RAPID CITY     CLEAR     65  62  90 SE5       29.78S
PIERRE         CLEAR     64  62  93 NE3       29.72R
WINNER         FAIR      69  63  81 NE7       29.75R
SIOUX FALLS    CLOUDY    69  63  81 S10       29.90R THUNDER
OMAHA          MOCLDY    70  63  78 S16       29.90F
GRAND ISLAND   CLOUDY    71  64  78 S16       29.86F
KANSAS CITY    PTCLDY    68  65  90 SE9       29.98R FOG
WICHITA        PTCLDY    74  69  85 SE7       29.93R
HAYS           CLOUDY    73  63  68 S10       29.89S
LIBERAL        CLEAR     70  61  73 S8        29.96R
GOODLAND       CLEAR     68  62  81 S14       29.90R
$$



USA.gov is the U.S. government's official web portal to all federal, state and local government web resources and services.